User: anonymous   Login
Location: Caltech
(34.1382°N, 118.1253°W)
Time: 01:29:01
(UTC-08:00)
Language:

Cosmos 1943 Rocket - Orbit

View from above orbital plane
View from above orbital plane
View from above satellite
View from above satellite

Ground track
Ground track

The orbit data is extracted from the following two-line orbital elements,

1 19120U 88039B   17053.55381388 -.00000123  00000-0 -35494-4 0  9995
2 19120  71.0139 207.1346 0021827 357.9380   2.1651 14.19165942490127
Epoch (UTC): 22 February 2017 13:17:29
Eccentricity: 0.0021827
inclination: 71.0139°
perigee height: 812 km
apogee height: 844 km
right ascension of ascending node: 207.1346°
argument of perigee: 357.9380°
revolutions per day: 14.19165942
mean anomaly at epoch: 2.1651°
orbit number at epoch: 49012

The dashed part of the orbit path shows where the satellite is in the earth's shadow,  

DLR